Location: Coupvray
(48.8929°N, 2.7967°E)
Time: 20:43:35
(UTC+00:00)

Cosmos 1515 - Pass Details

Date: 14 July 2020
Orbit: 507 x 515 km, 82.5° (Epoch: 14 August)

Event Time Altitude Azimuth Distance (km) Brightness Sun altitude
Rises 01:08:30 0° 350° (N) 2,642 8.4 -17.6°
Reaches altitude 10° 01:10:39 10° 351° (N) 1,751 7.3 -17.5°
Maximum altitude 01:14:30 88° 77° (ENE) 522 3.6 -17.3°
Enters shadow 01:16:00 36° 170° (S) 834 4.3 -17.2°
